Weather History for Middleton, WI

Change the Weather History Date:

Friday, February 7, 2014

  Actual Average (KMSN) Record (KMSN)
Temperature  
Mean Temperature 6 °F 21 °F  
Max Temperature 15 °F 29 °F 54 °F (1882)
Min Temperature -4 °F 13 °F -19 °F (1977)
Degree Days  
Heating Degree Days 60 44  
Month to date heating degree days 269  
Since 1 July heating degree days 4582  
Cooling Degree Days 0 0  
Month to date cooling degree days 0  
Year to date cooling degree days 0  
Moisture  
Dew Point -6 °F    
Average Humidity 59    
Maximum Humidity 74    
Minimum Humidity 40    
Precipitation  
Precipitation 0.00 in 0.05 in 0.94 in (1904)
Month to date precipitation 0.26  
Year to date precipitation 1.49  
Snow  
Snow 0.00 in 0.40 in 11.90 in (2008)
Month to date snowfall 2.5  
Since 1 July snowfall 33.0  
Snow Depth -    
Sea Level Pressure  
Sea Level Pressure 30.25 in    
Wind  
Wind Speed 9 mph (WSW)    
Max Wind Speed 18 mph    
Max Gust Speed 22 mph    
Visibility 10 miles    
Events      
T = Trace of Precipitation, MM = Missing Value Source: NWS Daily Summary

Daily Weather History Graph

Daily Weather History Graph

Search for Another Location

Airport:

Trip Planner

Search our weather history database for the weather conditions in past years. The results will help you decide how hot, cold, wet, or windy it might be!

Date:

Astronomy

Feb. 07, 2014 Rise Set
Actual Time 7:06 AM CST 5:18 PM CST
Civil Twilight 6:36 AM CST 5:48 PM CST
Nautical Twilight 6:03 AM CST 6:22 PM CST
Astronomical Twilight 5:29 AM CST 6:55 PM CST
Moon 11:28 AM CST (2/7) 1:23 AM CST (2/7)
Length of Visible Light 11h 11m
Length of Day
10h 12m
First Quarter, 59% of the Moon is Illuminated
Feb 7
First Quarter
Feb 14
Full
Feb 22
Last Quarter
Mar 1
New
Mar 8
First Quarter

Hourly Weather History & Observations

Time (CST) Temp. Windchill Dew Point Humidity Pressure Visibility Wind Dir Wind Speed Gust Speed Precip Events Conditions
12:15 AM 2.1 °F -14.4 °F -6.7 °F 67% 30.27 in 10.0 mi West 11.5 mph - N/A   Overcast
12:35 AM 2.3 °F -14.2 °F -6.7 °F 66% 30.27 in 10.0 mi West 11.5 mph - N/A   Overcast
12:55 AM 2.3 °F -11.4 °F -6.7 °F 66% 30.27 in 10.0 mi West 8.1 mph - N/A   Overcast
1:15 AM 2.8 °F -12.7 °F -6.2 °F 66% 30.27 in 10.0 mi West 10.4 mph - N/A   Overcast
1:35 AM 2.7 °F -12.9 °F -6.3 °F 66% 30.26 in 10.0 mi WSW 10.4 mph - N/A   Overcast
1:55 AM 2.7 °F -10.9 °F -6.5 °F 66% 30.26 in 10.0 mi WSW 8.1 mph - N/A   Overcast
2:15 AM 2.1 °F -11.6 °F -6.7 °F 67% 30.26 in 10.0 mi WSW 8.1 mph - N/A   Scattered Clouds
2:35 AM 1.8 °F -9.5 °F -6.9 °F 67% 30.26 in 10.0 mi WSW 5.8 mph - N/A   Clear
2:55 AM 1.2 °F -11.5 °F -7.2 °F 68% 30.25 in 10.0 mi WSW 6.9 mph - N/A   Clear
3:15 AM 1.0 °F -12.9 °F -7.4 °F 68% 30.25 in 10.0 mi WSW 8.1 mph - N/A   Clear
3:35 AM 0.9 °F -10.5 °F -7.6 °F 68% 30.25 in 10.0 mi WSW 5.8 mph - N/A   Clear
3:55 AM 0.5 °F -11.0 °F -7.6 °F 69% 30.25 in 10.0 mi SW 5.8 mph - N/A   Clear
4:15 AM 0.1 °F -9.7 °F -7.8 °F 69% 30.24 in 10.0 mi WSW 4.6 mph - N/A   Clear
4:35 AM -0.0 °F -7.9 °F -8.0 °F 69% 30.24 in 10.0 mi SW 3.5 mph - N/A   Clear
4:55 AM -0.4 °F -13.4 °F -8.0 °F 70% 30.24 in 10.0 mi West 6.9 mph - N/A   Clear
5:15 AM -0.2 °F -11.8 °F -7.6 °F 71% 30.24 in 10.0 mi SW 5.8 mph - N/A   Clear
5:35 AM -0.6 °F -10.6 °F -8.0 °F 71% 30.24 in 10.0 mi WSW 4.6 mph - N/A   Clear
5:55 AM -0.8 °F -8.7 °F -8.0 °F 72% 30.23 in 10.0 mi SW 3.5 mph - N/A   Clear
6:15 AM -1.3 °F -9.3 °F -8.5 °F 72% 30.23 in 10.0 mi SW 3.5 mph - N/A   Clear
6:35 AM -1.5 °F -11.6 °F -8.7 °F 71% 30.23 in 10.0 mi SSW 4.6 mph - N/A   Clear
6:55 AM -4.0 °F -16.3 °F -10.5 °F 74% 30.24 in 10.0 mi SSW 5.8 mph - N/A   Clear
7:15 AM -3.8 °F -14.4 °F -10.3 °F 74% 30.25 in 10.0 mi SSW 4.6 mph - N/A   Clear
7:35 AM -3.1 °F -13.5 °F -9.9 °F 73% 30.26 in 10.0 mi SW 4.6 mph - N/A   Clear
7:55 AM -1.7 °F -13.5 °F -9.8 °F 68% 30.26 in 10.0 mi SW 5.8 mph - N/A   Clear
8:15 AM -0.8 °F -16.2 °F -9.4 °F 67% 30.27 in 10.0 mi SW 9.2 mph - N/A   Clear
8:35 AM 0.1 °F -16.0 °F -9.4 °F 64% 30.27 in 10.0 mi SW 10.4 mph - N/A   Clear
8:55 AM 0.7 °F -17.0 °F -9.2 °F 63% 30.27 in 10.0 mi SW 12.7 mph - N/A   Clear
9:15 AM 1.4 °F -13.5 °F -9.2 °F 61% 30.27 in 10.0 mi SW 9.2 mph - N/A   Clear
9:35 AM 2.5 °F -14.0 °F -8.7 °F 60% 30.27 in 10.0 mi SW 11.5 mph - N/A   Clear
9:55 AM 3.2 °F -11.3 °F -8.5 °F 58% 30.27 in 10.0 mi SW 9.2 mph - N/A   Clear
10:15 AM 4.6 °F -12.8 °F -8.3 °F 55% 30.27 in 10.0 mi SW 13.8 mph - N/A   Clear
10:35 AM 6.1 °F -8.7 °F -7.6 °F 53% 30.27 in 10.0 mi SW 10.4 mph - N/A   Clear
10:55 AM 7.5 °F -7.7 °F -7.6 °F 50% 30.27 in 10.0 mi SW 11.5 mph 17.3 mph N/A   Clear
11:15 AM 9.1 °F -4.9 °F -7.1 °F 48% 30.27 in 10.0 mi WSW 10.4 mph 16.1 mph N/A   Clear
11:35 AM 10.2 °F -5.7 °F -6.7 °F 47% 30.26 in 10.0 mi WSW 13.8 mph - N/A   Clear
11:55 AM 11.1 °F -5.7 °F -6.9 °F 44% 30.26 in 10.0 mi WSW 16.1 mph 21.9 mph N/A   Clear
12:15 PM 11.3 °F -6.0 °F -6.7 °F 44% 30.25 in 10.0 mi West 17.3 mph - N/A   Clear
12:35 PM 12.2 °F -5.3 °F -6.5 °F 43% 30.25 in 10.0 mi WSW 18.4 mph - N/A   Clear
12:55 PM 12.7 °F -1.1 °F -6.2 °F 43% 30.23 in 10.0 mi West 11.5 mph - N/A   Clear
1:15 PM 13.1 °F -2.0 °F -6.5 °F 41% 30.23 in 10.0 mi WSW 13.8 mph 20.7 mph N/A   Clear
1:35 PM 13.8 °F -2.2 °F -6.3 °F 40% 30.23 in 10.0 mi WSW 16.1 mph 20.7 mph N/A   Clear
1:55 PM 14.5 °F -0.7 °F -5.8 °F 40% 30.22 in 10.0 mi West 15.0 mph 21.9 mph N/A   Clear
2:15 PM 14.9 °F 0.9 °F -5.4 °F 40% 30.22 in 10.0 mi SW 12.7 mph 19.6 mph N/A   Clear
2:35 PM 15.1 °F 1.1 °F -5.1 °F 41% 30.22 in 10.0 mi WSW 12.7 mph 16.1 mph N/A   Clear
2:55 PM 14.9 °F 1.6 °F -4.7 °F 42% 30.22 in 10.0 mi WSW 11.5 mph 19.6 mph N/A   Clear
3:15 PM 14.9 °F 0.9 °F -4.0 °F 43% 30.22 in 10.0 mi WSW 12.7 mph - N/A   Clear
3:35 PM 14.9 °F 1.6 °F -4.2 °F 43% 30.22 in 10.0 mi WSW 11.5 mph 19.6 mph N/A   Clear
3:55 PM 14.5 °F 0.5 °F -4.0 °F 44% 30.22 in 10.0 mi WSW 12.7 mph 19.6 mph N/A   Clear
4:15 PM 14.0 °F -0.8 °F -3.5 °F 46% 30.22 in 10.0 mi WSW 13.8 mph 17.3 mph N/A   Clear
4:30 PM 13.5 °F -0.9 °F -3.6 °F 47% 30.22 in 10.0 mi SW 12.7 mph 18.4 mph N/A   Clear
4:55 PM 12.2 °F -1.0 °F -3.8 °F 49% 30.22 in 10.0 mi SW 10.4 mph - N/A   Clear
5:15 PM 11.3 °F -3.6 °F -4.0 °F 50% 30.22 in 10.0 mi WSW 12.7 mph - N/A   Clear
5:35 PM 10.4 °F -2.4 °F -4.0 °F 52% 30.22 in 10.0 mi WSW 9.2 mph - N/A   Clear
5:55 PM 10.2 °F -3.5 °F -4.0 °F 53% 30.23 in 10.0 mi SW 10.4 mph - N/A   Clear
6:15 PM 9.5 °F -1.5 °F -4.0 °F 54% 30.23 in 10.0 mi SW 6.9 mph - N/A   Clear
6:35 PM 8.8 °F -3.5 °F -3.8 °F 57% 30.23 in 10.0 mi SW 8.1 mph - N/A   Clear
6:55 PM 8.8 °F -2.4 °F -3.5 °F 58% 30.24 in 10.0 mi SW 6.9 mph - N/A   Clear
7:15 PM 9.0 °F -5.1 °F -3.3 °F 58% 30.24 in 10.0 mi SW 10.4 mph - N/A   Clear
7:35 PM 8.6 °F -3.7 °F -3.3 °F 59% 30.24 in 10.0 mi WSW 8.1 mph - N/A   Clear
7:55 PM 7.9 °F -2.2 °F -3.5 °F 60% 30.24 in 10.0 mi WSW 5.8 mph - N/A   Clear
8:15 PM 7.7 °F -2.4 °F -3.5 °F 60% 30.24 in 10.0 mi WSW 5.8 mph - N/A   Clear
8:35 PM 7.2 °F -5.4 °F -3.5 °F 62% 30.24 in 10.0 mi WSW 8.1 mph - N/A   Clear
8:55 PM 6.4 °F -2.4 °F -3.8 °F 63% 30.25 in 10.0 mi WSW 4.6 mph - N/A   Clear
9:15 PM 5.9 °F - -4.2 °F 63% 30.25 in 10.0 mi Calm Calm - N/A   Clear
9:35 PM 4.1 °F - -4.7 °F 67% 30.25 in 10.0 mi Calm Calm - N/A   Clear
9:55 PM 5.0 °F -2.1 °F -4.2 °F 66% 30.25 in 10.0 mi WSW 3.5 mph - N/A   Clear
10:15 PM 4.1 °F - -4.4 °F 68% 30.25 in 10.0 mi Calm Calm - N/A   Clear
10:35 PM 3.0 °F - -5.1 °F 69% 30.26 in 10.0 mi Calm Calm - N/A   Clear
10:55 PM 3.6 °F -3.8 °F -4.7 °F 68% 30.26 in 10.0 mi West 3.5 mph - N/A   Clear
11:15 PM 3.9 °F -3.4 °F -4.0 °F 70% 30.26 in 10.0 mi SW 3.5 mph - N/A   Clear
11:35 PM 4.1 °F -3.2 °F -4.0 °F 69% 30.25 in 10.0 mi SW 3.5 mph - N/A   Clear
11:55 PM 3.6 °F - -4.9 °F 68% 30.25 in 10.0 mi Calm Calm - N/A   Clear